Total_Precipitation_Accumulation
0.63 0.62 0.50 0.41 0.38 0.38 0.36 0.34 0.40 0.47 0.50 0.41 0.42 0.51 0.51 0.55 0.59 0.67 0.77 0.86 0.79 0.74 0.67 0.65 0.74 0.82 1.00 1.06 1.03 0.94 0.90 0.84 0.73 0.70 0.51 0.28 0.20 0.19 0.19 0.12 0.06 0.05 0.03
0.63 0.59 0.52 0.49 0.49 0.52 0.51 0.40 0.40 0.43 0.41 0.41 0.45 0.47 0.47 0.50 0.54 0.62 0.70 0.75 0.75 0.67 0.60 0.56 0.60 0.68 0.83 0.99 1.10 1.01 0.95 0.88 0.84 0.81 0.66 0.46 0.34 0.28 0.22 0.16 0.10 0.07 0.06
0.67 0.65 0.59 0.49 0.48 0.49 0.48 0.41 0.40 0.40 0.37 0.43 0.44 0.47 0.46 0.44 0.50 0.54 0.57 0.57 0.50 0.47 0.46 0.44 0.49 0.54 0.64 0.77 0.91 0.99 0.96 0.90 0.92 0.94 0.81 0.62 0.46 0.35 0.29 0.24 0.16 0.13 0.11
0.81 0.74 0.69 0.62 0.61 0.51 0.41 0.36 0.35 0.35 0.31 0.34 0.38 0.39 0.42 0.42 0.44 0.45 0.44 0.47 0.41 0.32 0.28 0.27 0.32 0.35 0.42 0.55 0.69 0.82 0.94 0.97 0.98 1.00 0.93 0.73 0.54 0.40 0.30 0.28 0.28 0.24 0.21
0.89 0.83 0.75 0.70 0.60 0.49 0.44 0.33 0.29 0.25 0.24 0.27 0.36 0.45 0.48 0.47 0.49 0.48 0.40 0.42 0.41 0.35 0.29 0.25 0.21 0.22 0.27 0.36 0.48 0.67 0.80 0.92 0.99 1.04 1.01 0.87 0.70 0.56 0.42 0.35 0.34 0.37 0.37
0.76 0.75 0.75 0.71 0.56 0.48 0.41 0.32 0.25 0.23 0.22 0.25 0.29 0.38 0.48 0.45 0.54 0.53 0.44 0.41 0.40 0.33 0.28 0.30 0.30 0.26 0.20 0.17 0.19 0.31 0.46 0.64 0.80 0.91 0.95 0.87 0.74 0.64 0.58 0.50 0.41 0.35 0.37
0.60 0.63 0.63 0.59 0.46 0.40 0.31 0.27 0.26 0.24 0.25 0.28 0.31 0.38 0.50 0.60 0.56 0.42 0.43 0.41 0.40 0.34 0.27 0.27 0.31 0.30 0.34 0.30 0.25 0.22 0.22 0.30 0.47 0.63 0.71 0.73 0.78 0.67 0.54 0.44 0.37 0.34 0.34
0.45 0.48 0.46 0.46 0.41 0.33 0.25 0.25 0.25 0.25 0.27 0.28 0.31 0.35 0.39 0.51 0.48 0.39 0.49 0.48 0.49 0.45 0.37 0.33 0.35 0.35 0.35 0.46 0.49 0.41 0.34 0.35 0.46 0.37 0.40 0.61 0.65 0.61 0.52 0.45 0.43 0.37 0.31
0.30 0.36 0.39 0.39 0.35 0.30 0.25 0.31 0.36 0.33 0.31 0.30 0.29 0.30 0.33 0.38 0.41 0.34 0.38 0.49 0.56 0.51 0.42 0.41 0.43 0.44 0.56 0.55 0.47 0.46 0.45 0.45 0.63 0.64 0.60 0.55 0.49 0.43 0.41 0.44 0.42 0.37 0.33
0.19 0.24 0.28 0.30 0.34 0.37 0.45 0.52 0.52 0.48 0.40 0.35 0.33 0.30 0.32 0.33 0.41 0.26 0.30 0.42 0.52 0.59 0.53 0.48 0.62 0.57 0.57 0.44 0.31 0.41 0.48 0.49 0.49 0.51 0.50 0.46 0.38 0.33 0.32 0.32 0.40 0.40 0.35
0.04 0.10 0.18 0.29 0.34 0.44 0.55 0.58 0.56 0.50 0.41 0.35 0.33 0.31 0.31 0.38 0.50 0.40 0.39 0.45 0.50 0.58 0.61 0.60 0.58 0.63 0.45 0.34 0.29 0.35 0.48 0.52 0.51 0.55 0.55 0.48 0.37 0.32 0.29 0.29 0.33 0.34 0.35
0.03 0.07 0.13 0.20 0.29 0.42 0.51 0.50 0.49 0.47 0.44 0.40 0.39 0.37 0.38 0.47 0.53 0.50 0.47 0.49 0.50 0.56 0.58 0.51 0.47 0.48 0.33 0.26 0.24 0.29 0.36 0.38 0.40 0.47 0.51 0.48 0.39 0.33 0.30 0.27 0.26 0.26 0.26
0.01 0.02 0.06 0.11 0.22 0.36 0.39 0.39 0.42 0.44 0.43 0.42 0.40 0.37 0.36 0.40 0.49 0.56 0.47 0.39 0.35 0.41 0.42 0.40 0.34 0.30 0.25 0.21 0.21 0.25 0.26 0.32 0.41 0.46 0.44 0.42 0.41 0.38 0.34 0.30 0.24 0.19 0.18
0.00 0.00 0.01 0.02 0.05 0.10 0.15 0.20 0.26 0.31 0.32 0.32 0.34 0.38 0.40 0.40 0.39 0.41 0.41 0.37 0.31 0.30 0.26 0.19 0.18 0.19 0.22 0.24 0.25 0.23 0.24 0.37 0.48 0.51 0.50 0.46 0.45 0.42 0.39 0.35 0.33 0.30 0.28
0.00 0.00 0.01 0.02 0.03 0.04 0.06 0.09 0.12 0.15 0.19 0.24 0.30 0.33 0.34 0.38 0.36 0.36 0.36 0.36 0.40 0.43 0.42 0.29 0.22 0.20 0.21 0.23 0.25 0.29 0.37 0.45 0.52 0.49 0.48 0.44 0.42 0.44 0.41 0.38 0.37 0.36 0.35
0.00 0.00 0.00 0.01 0.01 0.01 0.02 0.03 0.04 0.06 0.09 0.12 0.15 0.18 0.18 0.24 0.30 0.31 0.33 0.34 0.35 0.39 0.42 0.41 0.40 0.40 0.38 0.34 0.32 0.29 0.31 0.37 0.42 0.48 0.48 0.44 0.38 0.38 0.36 0.33 0.34 0.34 0.33
0.00 0.00 0.00 0.01 0.01 0.02 0.03 0.05 0.04 0.03 0.02 0.03 0.05 0.08 0.11 0.11 0.14 0.20 0.26 0.30 0.31 0.34 0.36 0.39 0.40 0.41 0.38 0.33 0.29 0.25 0.23 0.25 0.31 0.39 0.46 0.48 0.47 0.44 0.40 0.34 0.29 0.27 0.27
0.00 0.00 0.01 0.05 0.07 0.04 0.04 0.08 0.11 0.12 0.09 0.04 0.02 0.04 0.05 0.05 0.04 0.06 0.08 0.14 0.16 0.18 0.24 0.27 0.27 0.27 0.26 0.24 0.20 0.18 0.17 0.18 0.19 0.22 0.28 0.36 0.46 0.54 0.54 0.48 0.44 0.38 0.34
0.00 0.01 0.02 0.06 0.07 0.08 0.11 0.13 0.12 0.12 0.11 0.07 0.04 0.02 0.02 0.02 0.02 0.02 0.03 0.06 0.06 0.07 0.09 0.10 0.11 0.11 0.14 0.14 0.11 0.10 0.12 0.13 0.15 0.16 0.18 0.20 0.26 0.36 0.45 0.50 0.53 0.56 0.53
0.00 0.00 0.01 0.03 0.05 0.06 0.08 0.09 0.08 0.07 0.07 0.05 0.04 0.03 0.03 0.03 0.03 0.02 0.02 0.03 0.03 0.03 0.04 0.04 0.05 0.05 0.06 0.07 0.06 0.05 0.05 0.07 0.09 0.10 0.11 0.13 0.16 0.19 0.25 0.33 0.38 0.41 0.43
0.00 0.00 0.00 0.01 0.03 0.03 0.03 0.03 0.04 0.04 0.03 0.02 0.02 0.01 0.02 0.05 0.05 0.04 0.03 0.03 0.03 0.03 0.03 0.03 0.03 0.04 0.05 0.06 0.10 0.12 0.09 0.06 0.07 0.08 0.09 0.10 0.11 0.12 0.15 0.20 0.24 0.27 0.31
0.00 0.00 0.01 0.02 0.04 0.03 0.02 0.02 0.03 0.04 0.03 0.02 0.02 0.01 0.01 0.04 0.05 0.05 0.04 0.03 0.04 0.03 0.03 0.03 0.03 0.04 0.05 0.06 0.10 0.15 0.17 0.14 0.11 0.09 0.10 0.11 0.12 0.12 0.13 0.15 0.17 0.18 0.20
0.00 0.00 0.01 0.02 0.03 0.01 0.01 0.03 0.03 0.03 0.03 0.02 0.02 0.02 0.03 0.04 0.04 0.03 0.03 0.04 0.05 0.06 0.06 0.05 0.04 0.05 0.06 0.07 0.08 0.09 0.10 0.13 0.15 0.15 0.13 0.13 0.14 0.15 0.17 0.17 0.17 0.19 0.20
0.00 0.00 0.01 0.02 0.02 0.02 0.03 0.03 0.03 0.02 0.02 0.02 0.02 0.03 0.04 0.05 0.04 0.03 0.03 0.04 0.05 0.05 0.06 0.05 0.04 0.04 0.05 0.06 0.07 0.08 0.10 0.10 0.09 0.08 0.09 0.10 0.11 0.12 0.14 0.16 0.18 0.19 0.21
0.00 0.00 0.01 0.01 0.01 0.02 0.02 0.03 0.04 0.02 0.02 0.02 0.02 0.02 0.03 0.04 0.05 0.04 0.03 0.03 0.03 0.03 0.03 0.03 0.03 0.05 0.08 0.09 0.09 0.12 0.18 0.17 0.12 0.09 0.09 0.10 0.11 0.13 0.16 0.19 0.23 0.26 0.28
0.00 0.00 0.01 0.01 0.01 0.01 0.02 0.04 0.04 0.04 0.03 0.02 0.03 0.03 0.04 0.04 0.04 0.03 0.03 0.02 0.02 0.02 0.02 0.03 0.03 0.05 0.08 0.09 0.09 0.11 0.14 0.13 0.13 0.12 0.08 0.08 0.10 0.14 0.19 0.21 0.24 0.28 0.34